STARLINK-1172, 45074

Orbit data source: Space-Track

STARLINK-1172, 45074 is a payload satellite owned by SpaceX/Seattle (US) in LEO that was launched on Wed, 29 Jan 2020 UTC via an FALCON 9 launch vehicle from the Air Force Eastern Test Range (AFETR). Payload-class satellites include a variety of spacecraft equipped with specific instruments for various scientific and technological missions. These include communications satellites like Starlink; space stations such as the ISS; scientific satellites like the Hubble; Earth observation satellites from companies like Planet Labs, Umbra, and HawkEye 360; GPS; miniature CubeSats for education and research; and military/defense satellites.

Loading next visibility...
Identifier
45074, 2020-006AG
Orbit
LEO
Country
Flag of USUS
Related business
Manufacturer
SpaceX/Seattle
Mission
Operational Commercial Communications
Bus & Motor
STARLINK, Unknown motor
Mass
260 kg wet, ~248 kg dry
Launch date (UTC)
2020-01-29 (6 years ago)
Launch vehicle
FALCON 9
Launch site
Air Force Eastern Test Range (AFETR)
Object type
Payload
Rocket body
Debris
Shape & HBR
Box + 1 Pan, 10.1 m
Radar Cross Section
13.562 m², Large (>1 m²)

Expand to show TLE details & history
Last TLE update: 5 hours ago

TLE from 5 hours ago
0 STARLINK-1172
1 45074U 20006AG  25347.02271766  .00000724  00000-0  67528-4 0  9995
2 45074  53.0556 295.6839 0002028 125.4943 234.6236 15.06390714323671
Epoch: 2025-12-13T00:32Z
TLE epoch observation values (Epoch: 2025-12-13T00:32:42.805Z)
Latitude
0.00001°
Longitude
-154.4504°
Altitude
548.933 km
Speed
7.588 km/s
True Right ascension
19h 42m 44s
True Declination
0° 00' 00"
Sunlit
Object was in daylight at epoch
Visualization orbit readout
Latitude
Unknown
Longitude
Unknown
Altitude
Unknown
Speed
Unknown
Apparent Right ascension
Unknown
Apparent Declination
Unknown
Sunlit
N/A
Visualization observer readout
Local Sidereal Time
03:34:20
Azimuth
Unknown
Elevation
Unknown
Doppler factor
Unknown
Orbital elements
Apogee altitude
548.915 km
Perigee altitude
546.106 km
Semi-major axis
6,925.648 km
Eccentricity
0.0002
Inclination
53.0556°
RAAN
295.6839°
Arg. of periapsis
125.4943°
True anomaly
234.60465°
Mean anomaly
234.6236°
Eccentric anomaly
234.61413°
Mean motion
3.76576 °/min
Orbital period
95.6 mins
BSTAR
0.000067528
Loading maneuver chart data...
Computing Atmospheric mass density...

Documentation

Showing up to 5 results
|